TimeAEDT,TemperatureF,Dew PointF,Humidity,Sea Level PressureIn,VisibilityMPH,Wind Direction,Wind SpeedMPH,Gust SpeedMPH,PrecipitationIn,Events,Conditions,WindDirDegrees,DateUTC
12:00 AM,75.2,68.0,78,29.71,6.2,SSW,4.6,-,N/A,,Unknown,210,2013-01-17 13:00:00
12:30 AM,75.2,68.0,78,29.71,6.2,Calm,Calm,-,N/A,,Unknown,0,2013-01-17 13:30:00
1:00 AM,75.2,68.0,78,29.71,6.2,Calm,Calm,-,N/A,,Unknown,0,2013-01-17 14:00:00
1:30 AM,75.2,66.2,73,29.68,6.2,Calm,Calm,-,N/A,,Unknown,0,2013-01-17 14:30:00
2:00 AM,73.4,66.2,78,29.68,6.2,Calm,Calm,-,N/A,,Unknown,0,2013-01-17 15:00:00
2:30 AM,71.6,66.2,83,29.65,6.2,Calm,Calm,-,N/A,,Unknown,0,2013-01-17 15:30:00
3:00 AM,71.6,66.2,83,29.65,6.2,Calm,Calm,-,N/A,,Unknown,0,2013-01-17 16:00:00
3:30 AM,69.8,66.2,88,29.65,6.2,Calm,Calm,-,N/A,,Unknown,0,2013-01-17 16:30:00
4:00 AM,69.8,68.0,94,29.62,6.2,Calm,Calm,-,N/A,,Unknown,0,2013-01-17 17:00:00
4:30 AM,69.8,66.2,88,29.62,6.2,Calm,Calm,-,N/A,,Unknown,0,2013-01-17 17:30:00
5:00 AM,68.0,66.2,94,29.62,5.0,Calm,Calm,-,N/A,,Unknown,0,2013-01-17 18:00:00
5:11 AM,68.0,66.2,94,29.62,3.7,Calm,Calm,-,N/A,,Unknown,0,2013-01-17 18:11:00
5:30 AM,68.0,68.0,100,29.62,1.2,Calm,Calm,-,N/A,,Unknown,0,2013-01-17 18:30:00
6:04 AM,68.0,68.0,100,29.62,3.7,Calm,Calm,-,N/A,,Unknown,0,2013-01-17 19:04:00
6:30 AM,68.0,68.0,100,29.65,6.2,Calm,Calm,-,N/A,,Unknown,0,2013-01-17 19:30:00
6:32 AM,68.0,68.0,100,29.65,6.2,Calm,Calm,-,N/A,,Unknown,0,2013-01-17 19:32:00
7:00 AM,71.6,69.8,94,29.62,6.2,Calm,Calm,-,N/A,,Unknown,0,2013-01-17 20:00:00
7:30 AM,71.6,68.0,88,29.62,6.2,Calm,Calm,-,N/A,,Unknown,0,2013-01-17 20:30:00
8:00 AM,75.2,69.8,83,29.62,6.2,Calm,Calm,-,N/A,,Unknown,0,2013-01-17 21:00:00
8:30 AM,78.8,68.0,69,29.62,6.2,NE,1.2,-,N/A,,Unknown,40,2013-01-17 21:30:00
9:00 AM,82.4,69.8,66,29.62,6.2,ENE,1.2,-,N/A,,Unknown,70,2013-01-17 22:00:00
9:30 AM,87.8,69.8,55,29.59,6.2,NE,2.3,-,N/A,,Unknown,50,2013-01-17 22:30:00
10:00 AM,93.2,69.8,46,29.59,6.2,ENE,2.3,-,N/A,,Unknown,70,2013-01-17 23:00:00
10:30 AM,98.6,68.0,37,29.56,6.2,North,1.2,-,N/A,,Unknown,360,2013-01-17 23:30:00
11:00 AM,104.0,62.6,26,29.56,6.2,NW,5.8,-,N/A,,Unknown,320,2013-01-18 00:00:00
11:30 AM,107.6,59.0,20,29.53,6.2,NW,13.8,-,N/A,,Unknown,320,2013-01-18 00:30:00
12:00 PM,111.2,59.0,18,29.53,6.2,NW,16.1,-,N/A,,Unknown,310,2013-01-18 01:00:00
1:00 PM,111.2,55.4,16,29.50,6.2,West,15.0,-,N/A,,Unknown,270,2013-01-18 02:00:00
2:01 PM,114.8,53.6,14,29.47,6.2,West,17.3,31.1,N/A,,Unknown,280,2013-01-18 03:01:00
2:30 PM,114.8,55.4,14,29.47,6.2,WNW,18.4,-,N/A,,Unknown,290,2013-01-18 03:30:00
2:56 PM,114.8,53.6,14,29.47,6.2,West,19.6,31.1,N/A,,Unknown,270,2013-01-18 03:56:00
3:00 PM,114.8,53.6,14,29.44,6.2,West,16.1,-,N/A,,Unknown,260,2013-01-18 04:00:00
3:30 PM,113.0,55.4,15,29.44,6.2,WNW,17.3,-,N/A,,Unknown,290,2013-01-18 04:30:00
4:00 PM,111.2,51.8,14,29.44,6.2,West,16.1,-,N/A,,Unknown,280,2013-01-18 05:00:00
4:30 PM,109.4,57.2,18,29.44,6.2,WNW,13.8,-,N/A,,Unknown,290,2013-01-18 05:30:00
5:00 PM,109.4,53.6,16,29.44,6.2,West,17.3,-,N/A,,Unknown,260,2013-01-18 06:00:00
5:30 PM,109.4,53.6,16,29.44,6.2,West,12.7,-,N/A,,Unknown,260,2013-01-18 06:30:00
5:51 PM,104.0,57.2,21,29.47,6.2,West,23.0,35.7,N/A,Rain,Light Rain,270,2013-01-18 06:51:00
5:59 PM,105.8,55.4,19,29.47,6.2,West,20.7,32.2,N/A,Rain,Light Rain Showers,270,2013-01-18 06:59:00
6:01 PM,105.8,55.4,19,29.47,6.2,West,19.6,31.1,N/A,Rain,Light Rain Showers,270,2013-01-18 07:01:00
6:30 PM,104.0,57.2,21,29.47,6.2,West,4.6,-,N/A,,Mostly Cloudy,280,2013-01-18 07:30:00
7:00 PM,98.6,60.8,29,29.50,6.2,NE,8.1,-,N/A,,Scattered Clouds,40,2013-01-18 08:00:00
7:30 PM,96.8,62.6,32,29.50,6.2,NE,9.2,-,N/A,,Scattered Clouds,40,2013-01-18 08:30:00
8:00 PM,95.0,62.6,34,29.50,6.2,NE,8.1,-,N/A,,Unknown,50,2013-01-18 09:00:00
8:28 PM,91.4,57.2,31,29.53,6.2,SSE,27.6,-,N/A,,Unknown,150,2013-01-18 09:28:00
8:33 PM,86.0,57.2,37,29.56,6.2,SSE,28.8,40.3,N/A,,Unknown,150,2013-01-18 09:33:00
8:54 PM,80.6,57.2,45,29.62,6.2,SSE,21.9,-,N/A,,Unknown,160,2013-01-18 09:54:00
9:00 PM,80.6,57.2,45,29.65,6.2,SSE,20.7,-,N/A,,Unknown,160,2013-01-18 10:00:00
9:08 PM,80.6,57.2,45,29.65,6.2,South,18.4,32.2,N/A,,Unknown,170,2013-01-18 10:08:00
9:30 PM,78.8,59.0,51,29.68,6.2,SSE,11.5,-,N/A,,Unknown,160,2013-01-18 10:30:00
10:00 PM,77.0,57.2,50,29.74,6.2,South,12.7,-,N/A,,Unknown,170,2013-01-18 11:00:00
10:30 PM,78.8,57.2,47,29.77,6.2,SE,9.2,-,N/A,,Unknown,140,2013-01-18 11:30:00
11:00 PM,77.0,57.2,50,29.77,6.2,SSE,6.9,-,N/A,,Unknown,150,2013-01-18 12:00:00
11:30 PM,77.0,57.2,50,29.80,6.2,South,10.4,-,N/A,,Unknown,170,2013-01-18 12:30:00